GW2173 Weather Reports


Display with metric or nautical units.
time (UTC)temp
F
wind
direction
speed
MPH
gust
MPH
rain 1hr
in
rain 24hr
in
rain mn
in
humidity
%
barometer
mb
20260507032751 53 131 5.0 13.0 0.00 0.00 0.49 68 1008.3
20260507032250 53 139 5.0 13.0 0.00 0.00 0.49 68 1008.4
20260507031749 53 127 5.0 13.0 0.00 0.00 0.49 68 1008.6
20260507025720 54 138 3.0 13.0 0.00 0.00 0.49 69 1009.0
20260507025219 54 143 3.0 13.0 0.00 0.00 0.49 68 1009.0
20260507024718 54 139 4.0 13.0 0.00 0.00 0.49 68 1009.0
20260507024217 54 120 4.0 13.0 0.00 0.00 0.49 68 1008.8
20260507023717 54 133 5.0 13.0 0.00 0.00 0.49 68 1008.6
20260507022711 54 127 3.0 13.0 0.00 0.00 0.49 69 1008.8
20260507022211 54 137 4.0 13.0 0.00 0.00 0.49 69 1008.8
20260507021710 54 132 4.0 13.0 0.00 0.00 0.49 69 1008.5
20260507021209 54 133 5.0 13.0 0.00 0.00 0.49 69 1008.0
20260507020709 54 132 4.0 13.0 0.00 0.00 0.49 69 1008.4
20260507020209 55 137 5.0 13.0 0.00 0.00 0.49 68 1008.1
20260507015708 55 136 5.0 13.0 0.00 0.00 0.49 68 1008.1
20260507015208 55 131 6.0 13.0 0.00 0.00 0.49 67 1008.1
20260507014707 55 137 5.0 13.0 0.00 0.00 0.49 67 1007.9
20260507014207 55 137 7.0 13.0 0.00 0.00 0.49 67 1007.9
20260507013706 55 136 8.0 14.0 0.00 0.00 0.49 67 1007.4
20260507012700 55 134 8.0 14.0 0.00 0.00 0.49 68 1007.6
20260507012159 55 132 5.0 11.0 0.00 0.00 0.49 69 1007.6
20260507010636 56 115 5.0 11.0 0.00 0.00 0.49 71 1007.6
20260507005619 57 155 4.0 11.0 0.00 0.00 0.49 75 1006.6
20260507004612 57 161 0.0 11.0 0.00 0.00 0.49 74 1006.5
20260507003605 57 155 2.0 11.0 0.00 0.00 0.49 72 1006.7
20260507003104 57 140 2.0 11.0 0.00 0.00 0.49 72 1006.1
20260507002603 57 131 2.0 11.0 0.00 0.00 0.49 72 1006.3
20260507002102 57 132 2.0 11.0 0.00 0.00 0.49 72 1006.5
20260506234953 58 176 1.0 11.0 0.00 0.00 0.49 72 1005.2
20260506234452 58 174 2.0 11.0 0.00 0.00 0.49 71 1005.5
20260506233951 58 123 2.0 11.0 0.00 0.00 0.49 72 1005.2
20260506232945 58 164 0.0 11.0 0.00 0.00 0.49 74 1005.2
20260506232444 58 177 1.0 11.0 0.00 0.00 0.49 72 1005.4
20260506231943 58 172 1.0 11.0 0.00 0.00 0.49 72 1005.5
20260506231443 58 96 2.0 11.0 0.00 0.00 0.49 71 1005.6
20260506230942 58 137 2.0 11.0 0.00 0.00 0.49 71 1006.3
20260506225935 59 133 1.0 11.0 0.00 0.00 0.49 71 1006.7
20260506224919 59 87 1.0 11.0 0.00 0.00 0.49 72 1006.7
20260506223904 60 90 0.0 11.0 0.00 0.00 0.49 70 1006.5
20260506222857 60 144 0.0 11.0 0.00 0.00 0.49 68 1006.7
20260506222356 60 166 0.0 11.0 0.00 0.00 0.49 68 1006.9
20260506221856 60 168 0.0 11.0 0.00 0.00 0.49 69 1006.4
20260506220841 60 162 1.0 11.0 0.00 0.00 0.49 68 1006.5
20260506215834 60 152 1.0 11.0 0.00 0.00 0.49 68 1006.3
20260506215333 60 142 1.0 11.0 0.00 0.00 0.49 68 1006.2
20260506214316 60 109 0.0 11.0 0.00 0.00 0.49 69 1005.8
20260506213816 59 144 1.0 11.0 0.00 0.00 0.49 70 1005.8
20260506212254 59 153 2.0 11.0 0.00 0.00 0.49 71 1005.9
20260506211753 59 162 3.0 11.0 0.00 0.00 0.49 70 1005.9
20260506211252 59 142 4.0 11.0 0.00 0.00 0.49 72 1006.5
20260506210245 59 165 4.0 11.0 0.00 0.00 0.49 71 1006.7
20260506205744 59 78 2.0 11.0 0.00 0.00 0.49 73 1006.5
20260506205243 59 15 2.0 11.0 0.00 0.00 0.49 72 1006.7
20260506204742 59 26 3.0 11.0 0.00 0.00 0.49 71 1006.2
20260506204241 60 27 4.0 11.0 0.00 0.00 0.49 72 1006.5
20260506203234 60 41 3.0 11.0 0.00 0.00 0.49 73 1006.3
20260506202733 60 37 3.0 11.0 0.00 0.00 0.49 73 1005.9
20260506201718 59 137 1.0 11.0 0.00 0.00 0.49 78 1005.9
20260506201218 59 183 3.0 11.0 0.00 0.00 0.49 75 1005.9
20260506200717 59 159 3.0 11.0 0.00 0.00 0.49 75 1006.1
20260506194648 59 135 3.0 12.0 0.00 0.00 0.49 77 1006.0
20260506193640 59 147 3.0 12.0 0.00 0.00 0.49 76 1006.0
20260506192633 58 164 5.0 12.0 0.00 0.00 0.49 77 1005.9
20260506191626 58 148 4.0 12.0 0.00 0.00 0.49 78 1005.9
20260506191125 58 152 5.0 12.0 0.00 0.00 0.49 79 1006.4
20260506190625 58 168 3.0 12.0 0.00 0.00 0.49 80 1006.1
20260506185104 58 118 4.0 12.0 0.00 0.00 0.49 81 1006.0
20260506184604 58 153 3.0 12.0 0.00 0.00 0.49 82 1005.7
20260506184103 58 143 4.0 12.0 0.00 0.00 0.49 84 1005.8
20260506182550 57 74 7.0 12.0 0.00 0.00 0.49 82 1005.5
20260506182049 57 30 3.0 12.0 0.00 0.00 0.49 84 1005.6
20260506181548 57 65 2.0 12.0 0.00 0.00 0.49 86 1005.7
20260506181047 56 28 4.0 12.0 0.00 0.00 0.49 85 1005.3
20260506175514 55 89 3.0 12.0 0.00 0.00 0.49 87 1006.3
20260506175013 55 81 4.0 12.0 0.00 0.00 0.49 88 1006.3
20260506174512 55 126 6.0 12.0 0.00 0.00 0.49 87 1006.1
20260506172949 55 146 7.0 12.0 0.00 0.00 0.49 89 1006.0
20260506172448 55 102 4.0 13.0 0.00 0.00 0.49 91 1006.3
20260506171947 55 115 3.0 13.0 0.00 0.00 0.49 92 1006.4
20260506171446 54 135 2.0 13.0 0.00 0.00 0.49 92 1006.3
20260506170945 54 105 1.0 13.0 0.00 0.00 0.49 93 1005.5
20260506170444 53 147 3.0 13.0 0.00 0.00 0.49 94 1006.4
20260506165943 53 159 2.0 13.0 0.00 0.00 0.49 95 1006.3
20260506165442 53 174 3.0 13.0 0.00 0.00 0.49 95 1005.8
20260506164941 53 163 3.0 13.0 0.00 0.00 0.49 97 1006.2
20260506164440 53 73 3.0 13.0 0.00 0.00 0.49 97 1005.4
20260506163939 52 46 4.0 13.0 0.00 0.00 0.49 98 1006.1
20260506163438 52 60 4.0 13.0 0.00 0.00 0.49 98 1006.4
20260506162421 51 29 3.0 13.0 0.00 0.00 0.49 99 1006.1
20260506161404 51 152 6.0 13.0 0.00 0.00 0.49 98 1006.3
20260506160903 51 113 6.0 13.0 0.00 0.00 0.49 99 1006.0
20260506160403 51 131 5.0 13.0 0.00 0.00 0.49 99 1005.9
20260506155902 50 137 6.0 13.0 0.00 0.00 0.49 99 1006.0
20260506155401 50 119 5.0 13.0 0.00 0.00 0.49 99 1004.4
20260506154900 50 157 5.0 13.0 0.00 0.00 0.49 99 1003.7
20260506154359 50 160 5.0 13.0 0.00 0.00 0.49 99 1005.0
20260506153858 50 155 6.0 13.0 0.00 0.00 0.49 99 1004.0
20260506153357 50 132 7.0 15.0 0.00 0.00 0.49 99 1001.4
20260506152856 49 114 7.0 15.0 0.00 0.00 0.49 99 1002.7
20260506151839 50 130 5.0 14.0 0.00 0.00 0.49 99 1001.8
20260506151338 50 139 7.0 14.0 0.00 0.00 0.49 99 1001.7
20260506150837 50 123 4.0 14.0 0.00 0.00 0.49 99 1001.7
20260506145820 50 148 6.0 14.0 0.00 0.00 0.49 99 1001.4
20260506145319 50 134 4.0 14.0 0.00 0.00 0.49 99 1000.7
20260506144818 50 140 4.0 14.0 0.00 0.00 0.49 99 1000.5
20260506144317 50 114 4.0 14.0 0.00 0.00 0.49 100 1000.2
20260506143301 50 106 4.0 14.0 0.01 0.00 0.49 99 999.8
20260506142800 50 120 2.0 14.0 0.01 0.00 0.49 100 999.1
20260506142259 49 113 3.0 14.0 0.01 0.00 0.49 99 999.2
20260506141252 49 130 3.0 14.0 0.01 0.00 0.49 99 999.5
20260506135739 49 130 9.0 20.0 0.03 0.00 0.49 99 998.4
20260506133720 50 125 11.0 21.0 0.03 0.00 0.49 99 984.0
20260506133219 50 125 14.0 21.0 0.01 0.00 0.48 99 991.7
20260506132718 50 127 9.0 20.0 0.01 0.00 0.48 99 993.0
20260506131711 51 133 10.0 20.0 0.01 0.00 0.47 99 986.6
20260506130158 53 121 6.0 13.0 0.01 0.00 0.47 99 998.5
20260506125658 54 58 7.0 13.0 0.00 0.00 0.46 98 998.5
20260506124643 58 27 8.0 13.0 0.00 0.00 0.46 99 998.3
20260506124142 58 290 4.0 11.0 0.00 0.00 0.46 100 999.0
20260506122610 58 273 4.0 11.0 0.00 0.00 0.46 100 997.1
20260506122109 58 275 5.0 11.0 0.00 0.00 0.46 100 996.0
20260506121608 58 278 3.0 11.0 0.00 0.00 0.46 100 996.0
20260506121107 58 278 4.0 11.0 0.00 0.00 0.46 100 986.9
20260506120607 58 256 7.0 11.0 0.00 0.00 0.46 100 989.7
20260506115601 58 245 4.0 12.0 0.00 0.00 0.46 100 979.6
20260506114048 58 253 6.0 11.0 0.00 0.00 0.46 100 950.8
20260506113547 58 268 6.0 11.0 0.00 0.00 0.46 100 962.3
20260506113046 58 265 5.0 11.0 0.00 0.00 0.45 100 965.5
20260506112545 58 250 6.0 11.0 0.00 0.00 0.45 100 962.8
20260506112044 58 249 6.0 11.0 0.00 0.00 0.45 100 969.7
20260506111543 58 236 4.0 11.0 0.01 0.00 0.45 100 973.3
20260506111042 58 249 5.0 11.0 0.01 0.00 0.45 100 973.8
20260506110541 57 244 6.0 11.0 0.01 0.00 0.45 100 974.1
20260506105534 57 236 4.0 11.0 0.01 0.00 0.45 100 972.6
20260506105033 57 231 5.0 12.0 0.01 0.00 0.45 100 972.9
20260506104533 57 232 5.0 12.0 0.01 0.00 0.45 99 973.1
20260506104032 57 216 4.0 11.0 0.01 0.00 0.45 99 973.1
20260506103025 57 228 5.0 11.0 0.03 0.00 0.45 99 973.7
20260506102524 57 221 6.0 11.0 0.03 0.00 0.45 99 974.2
20260506102023 57 242 4.0 11.0 0.05 0.00 0.45 99 974.2
20260506101016 57 215 5.0 11.0 0.05 0.00 0.44 99 973.9
20260506100515 57 208 2.0 11.0 0.05 0.00 0.44 99 974.5
20260506100014 57 200 4.0 11.0 0.05 0.00 0.43 99 974.8
20260506093956 57 215 2.0 12.0 0.09 0.00 0.43 99 975.9
20260506093456 57 217 3.0 12.0 0.11 0.00 0.43 99 975.2
20260506091428 57 216 3.0 12.0 0.13 0.00 0.39 98 976.1
20260506090928 57 214 2.0 12.0 0.13 0.00 0.38 98 976.7
20260506090426 57 259 1.0 12.0 0.13 0.00 0.38 98 976.2
20260506085926 57 233 1.0 12.0 0.15 0.00 0.37 98 977.2
20260506085424 57 221 1.0 12.0 0.15 0.00 0.36 98 976.8
20260506084923 57 251 2.0 12.0 0.16 0.00 0.35 98 976.9
20260506084423 57 236 3.0 12.0 0.15 0.00 0.33 98 977.4
20260506083920 58 252 2.0 12.0 0.17 0.00 0.33 98 977.5
20260506083417 58 268 3.0 12.0 0.19 0.00 0.32 97 977.8
20260506082916 58 265 3.0 12.0 0.20 0.00 0.31 97 977.9
20260506082415 58 282 2.0 12.0 0.21 0.00 0.30 97 978.5
20260506081915 58 246 3.0 12.0 0.24 0.00 0.29 97 978.6
20260506081414 58 243 3.0 12.0 0.25 0.00 0.28 97 978.1
20260506080912 58 256 6.0 15.0 0.21 0.00 0.25 97 979.0
20260506080411 58 259 6.0 15.0 0.21 0.00 0.24 97 979.6
20260506073336 58 314 10.0 15.0 0.13 0.00 0.14 94 984.1
20260506072836 59 335 7.0 15.0 0.11 0.00 0.12 93 977.6
20260506072335 59 345 8.0 14.0 0.07 0.00 0.09 92 971.4
20260506071833 59 328 9.0 14.0 0.03 0.00 0.05 90 992.1
20260506071333 59 335 6.0 13.0 0.01 0.00 0.03 89 991.4
20260506070831 60 71 7.0 15.0 0.01 0.00 0.03 89 990.9
20260506062237 60 199 2.0 13.0 0.00 0.00 0.01 87 987.1
20260506061736 60 199 1.0 13.0 0.00 0.00 0.01 89 987.1
20260506061236 59 199 2.0 13.0 0.00 0.00 0.01 90 985.2
20260506060735 59 199 3.0 13.0 0.00 0.00 0.01 90 985.7
20260506060234 60 199 2.0 13.0 0.00 0.00 0.01 90 985.6
20260506051155 61 43 0.0 13.0 0.01 0.00 0.01 81 954.5
20260506050653 61 37 0.0 13.0 0.01 0.00 0.01 82 956.2
20260506050153 61 25 1.0 13.0 0.01 0.00 0.01 83 984.2
20260506044650 62 5 2.0 13.0 0.00 0.00 0.00 79 992.9
20260506044149 62 20 3.0 13.0 0.00 0.00 0.00 78 993.0
20260506043648 63 16 2.0 13.0 0.00 0.00 0.00 77 992.8
20260506043146 64 6 2.0 13.0 0.00 0.00 0.00 74 992.6
20260506042646 64 345 2.0 13.0 0.00 0.00 0.00 71 992.7
20260506042146 64 307 3.0 13.0 0.00 0.00 0.00 69 992.8
20260506041652 64 292 3.0 13.0 0.00 0.00 0.00 68 991.9
20260506041144 64 280 2.0 13.0 0.00 0.00 0.00 69 981.9
20260506040643 64 301 2.0 13.0 0.00 0.00 0.00 69 947.2
20260506040141 65 272 2.0 13.0 0.00 0.00 0.00 69 980.5
20260506035641 65 281 3.0 13.0 0.00 0.00 0.00 68 962.7
20260506035140 65 289 4.0 13.0 0.00 0.00 0.00 69 978.3
20260506034123 65 281 4.0 13.0 0.00 0.00 0.00 68 985.8
20260506033622 65 284 5.0 13.0 0.00 0.00 0.00 68 986.7
20260506033121 65 266 5.0 13.0 0.00 0.00 0.00 68 985.8